STARLINK-3812, 52346

Orbit data source: Space-Track

STARLINK-3812, 52346 is a payload satellite owned by SpaceX/Seattle (US) in LEO that was launched on Fri, 29 Apr 2022 UTC via an FALCON 9 launch vehicle from the Air Force Eastern Test Range (AFETR). Payload-class satellites include a variety of spacecraft equipped with specific instruments for various scientific and technological missions. These include communications satellites like Starlink; space stations such as the ISS; scientific satellites like the Hubble; Earth observation satellites from companies like Planet Labs, Umbra, and HawkEye 360; GPS; miniature CubeSats for education and research; and military/defense satellites.

Loading next visibility...
Identifier
52346, 2022-045R
Orbit
LEO
Country
Flag of USUS
Related business
Manufacturer
SpaceX/Seattle
Mission
Operational Commercial Communications
Bus & Motor
STARLINK, Unknown motor
Mass
297 kg wet, ~275 kg dry
Launch date (UTC)
2022-04-29 (4 years ago)
Launch vehicle
FALCON 9
Launch site
Air Force Eastern Test Range (AFETR)
Object type
Payload
Rocket body
Debris
Shape & HBR
Box + 1 Pan, 10.1 m
Radar Cross Section
11.087 m², Large (>1 m²)

Expand to show TLE details & history
Last TLE update: 10 hours ago

TLE from 10 hours ago
0 STARLINK-3812
1 52346U 22045R   25349.91459963 -.00004047  00000-0 -23634-3 0  9990
2 52346  53.2169 215.2132 0001378  89.9224 270.1926 15.08838893203136
Epoch: 2025-12-15T21:57Z
TLE epoch observation values (Epoch: 2025-12-15T21:57:01.408Z)
Latitude
-0°
Longitude
161.151°
Altitude
540.641 km
Speed
7.593 km/s
True Right ascension
14h 20m 51s
True Declination
0° 00' 00"
Sunlit
Object was in daylight at epoch
Visualization orbit readout
Latitude
Unknown
Longitude
Unknown
Altitude
Unknown
Speed
Unknown
Apparent Right ascension
Unknown
Apparent Declination
Unknown
Sunlit
N/A
Visualization observer readout
Local Sidereal Time
06:21:10
Azimuth
Unknown
Elevation
Unknown
Doppler factor
Unknown
Orbital elements
Apogee altitude
540.945 km
Perigee altitude
539.038 km
Semi-major axis
6,918.129 km
Eccentricity
0.00014
Inclination
53.2169°
RAAN
215.2132°
Arg. of periapsis
89.9224°
True anomaly
270.17681°
Mean anomaly
270.1926°
Eccentric anomaly
270.1847°
Mean motion
3.7719 °/min
Orbital period
95.44 mins
BSTAR
-0.00023634
Loading maneuver chart data...
Computing Atmospheric mass density...
Loading historical data...
Loading historical data...
Loading historical data...
Loading historical data...
Loading historical data...
Loading historical data...
Loading historical data...

Documentation

Showing up to 5 results
|